Home > Weather > Denare Beach > Past weeks

Flag for Canada Past Weather in Denare Beach, Saskatchewan, Canada — Yesterday and Last 2 Weeks

Now
48 °F

Passing clouds.


Feels Like: 48 °F
Forecast: 47 / 76 °F
Wind: No wind

Location: The Pas

Current Time: Jun 27, 2016 at 2:48:04 AM

Latest Report: Jun 27, 2016 at 2:00 AM


Visibility: 15 mi

Pressure: 30.19 "Hg

Humidity: 94%

Dew Point: 46 °F

Location of Denare BeachLocation

Past Weather in Denare Beach — Graph

°F

Denare Beach Temperature Yesterday

Maximum temperature yesterday: 70 °F (at 5:00 PM)
Minimum temperature yesterday: 50 °F (at 6:00 AM)
Average temperature yesterday: 59 °F

High & Low Weather Summary for the Past Weeks

 TemperatureHumidityPressure
High82 °F (Jun 14, 2:00 PM)100% (Jun 25, 7:00 PM)30.17 "Hg (Jun 25, 7:00 PM)
Low41 °F (Jun 21, 5:00 AM)23% (Jun 22, 5:00 PM)29.54 "Hg (Jun 25, 7:00 PM)
Average65 °F62%29.84 "Hg
* Reported Jun 12 1:00 AM — Jun 27 1:00 AM, Denare Beach, Weather by CustomWeather, © 2016

Note: Actual official high and low records may vary slightly from our data, if they occured in-between our weather recording intervals... More about our weather records

Advertising

Denare Beach Weather History for the Previous 24 Hours

Scroll right to see more
 ConditionsComfort  
Time TempWeatherWind HumidityBarometerVisibility
1:00 AM
Mon, Jun 27
50 °FPassing clouds.No wind88%30.17 "Hg15 mi
12:00 AM54 °FPassing clouds.No wind88%30.16 "Hg15 mi
11:00 PM
Sun, Jun 26
55 °FScattered clouds.No wind82%30.15 "Hg15 mi
10:00 PM64 °FPartly sunny.3 mph52%30.12 "Hg15 mi
9:00 PM66 °FOvercast.5 mph52%30.11 "Hg15 mi
8:00 PM70 °FPartly sunny.5 mph40%30.08 "Hg15 mi
7:00 PM70 °FPartly sunny.5 mph40%30.07 "Hg15 mi
6:00 PM68 °FScattered clouds.7 mph43%30.07 "Hg15 mi
5:00 PM70 °FScattered clouds.8 mph38%30.05 "Hg15 mi
4:00 PM68 °FScattered clouds.9 mph46%30.03 "Hg15 mi
3:00 PM66 °FScattered clouds.12 mph49%30.00 "Hg15 mi
2:01 PM64 °FScattered clouds.10 mph52%29.97 "Hg15 mi
1:00 PM63 °FPartly sunny.9 mph59%29.94 "Hg15 mi
12:00 PM59 °FBroken clouds.12 mph68%29.91 "Hg15 mi
11:00 AM55 °FScattered clouds.15 mph72%29.88 "Hg15 mi
10:00 AM54 °FOvercast.14 mph82%29.84 "Hg15 mi
9:00 AM52 °FMore clouds than sun.14 mph88%29.81 "Hg15 mi
8:00 AM52 °FOvercast.15 mph88%29.78 "Hg15 mi
7:00 AM52 °FOvercast.15 mph88%29.74 "Hg15 mi
6:00 AM50 °FLow clouds.14 mph94%29.70 "Hg15 mi
5:00 AM52 °FOvercast.17 mph88%29.67 "Hg15 mi
4:00 AM52 °FOvercast.17 mph88%29.63 "Hg13 mi
3:00 AM52 °FLight rain. Low clouds.18 mph94%29.59 "Hg10 mi
2:00 AM54 °FLight rain. Low clouds.17 mph94%29.58 "Hg10 mi
Weather by CustomWeather, © 2016

See weather overviewHow to use our weather pages